Location: アルンシュタイン
(50.0000°N, 10.0000°E)
Time: 19:27:43
(UTC+02:00)

Transit 4A - Visible Passes

Search period start: 11 September 2024 00:00
Search period end: 21 September 2024 00:00
Orbit: 866 x 976 km, 66.8° (Epoch: 10 September)

Date Brightness Start Highest point End Pass type
(mag) Time Alt. Az. Time Alt. Az. Time Alt. Az.
11 Sep 9.2 04:30:06 13° S 04:34:33 32° ESE 04:39:47 10° NE visible
11 Sep 8.0 06:14:48 10° SW 06:20:35 58° NW 06:26:34 10° NNE visible
12 Sep 8.6 04:39:25 19° S 04:43:20 45° ESE 04:49:01 10° NE visible
13 Sep 10.2 03:05:10 10° ESE 03:07:06 12° E 03:09:02 10° E visible
13 Sep 8.1 04:48:40 24° SSW 04:52:12 64° ESE 04:58:08 10° NE visible
14 Sep 9.8 03:14:19 16° ESE 03:15:41 18° ESE 03:19:28 10° ENE visible
14 Sep 7.8 04:57:50 28° SSW 05:01:07 86° SE 05:07:12 10° NE visible
15 Sep 9.3 03:23:27 24° ESE 03:24:21 25° ESE 03:29:08 10° NE visible
15 Sep 7.8 05:06:57 28° SW 05:10:08 71° NW 05:16:12 10° NE visible
16 Sep 8.8 03:32:31 35° SE 03:33:05 36° ESE 03:38:29 10° NE visible
16 Sep 8.1 05:16:01 26° WSW 05:19:13 54° NW 05:25:11 10° NNE visible
17 Sep 8.3 03:41:33 50° SE 03:41:54 50° ESE 03:47:41 10° NE visible
17 Sep 8.5 05:25:03 22° W 05:28:23 42° NW 05:34:08 10° NNE visible
18 Sep 10.2 02:07:02 12° E 02:07:02 12° E 02:08:15 10° ENE visible
18 Sep 7.8 03:50:32 69° SE 03:50:47 70° ESE 03:56:47 10° NE visible
18 Sep 8.8 05:34:02 18° W 05:37:37 33° NW 05:43:05 10° NNE visible
19 Sep 9.9 02:15:59 17° E 02:15:59 17° E 02:18:19 10° ENE visible
19 Sep 7.6 03:59:29 83° WSW 03:59:43 87° NW 04:05:49 10° NE visible
19 Sep 9.1 05:42:58 14° W 05:46:55 27° NNW 05:52:03 10° NNE visible
20 Sep 9.6 02:24:54 23° ENE 02:24:54 23° ENE 02:27:52 10° NE visible
20 Sep 7.8 04:08:23 64° WNW 04:08:45 66° NW 04:14:48 10° NNE visible
20 Sep 9.4 05:51:53 11° WNW 05:56:16 23° NNW 06:01:04 10° NNE visible
